RYR1VD LKPR-ESGG

Flight info

Callsign RYR1VD
Flight time 1h 16m
Altitude 36000
Route VENOX DCT DEKOV Y621 GARKI DCT POGAB/N0456F370 Z36 OBANI/N0455F360 M725 RENKI DCT BIKRU DCT TELMO DCT EKRAL DCT NILEN L617 ARQUS
Aircraft B738/M-SDE2E3FGHIRWXY/LB1

Departure

Time 2026-05-07 19:04
Airport Václav Havel Airport Prague (LKPR)

Arrival

Time 2026-05-07 20:20
Airport Göteborg Landvetter Airport (ESGG)
Time Latitude Longitude Altitude Speed Heading
2026-05-07 18:24 50.10679 14.26426 1179 ft 0 kts 214°
2026-05-07 18:24 50.10655 14.26479 1182 ft 0 kts 215°
2026-05-07 18:51 50.10662 14.26485 1182 ft 2 kts 187°
2026-05-07 18:51 50.10677 14.26484 1182 ft 2 kts 184°
2026-05-07 18:51 50.10692 14.26488 1181 ft 2 kts 187°
2026-05-07 18:52 50.10707 14.26490 1181 ft 2 kts 185°
2026-05-07 18:52 50.10722 14.26492 1180 ft 2 kts 186°
2026-05-07 18:52 50.10737 14.26495 1180 ft 1 kts 201°
2026-05-07 18:52 50.10745 14.26508 1180 ft 1 kts 262°
2026-05-07 18:53 50.10744 14.26527 1181 ft 0 kts 300°
2026-05-07 18:53 50.10740 14.26535 1181 ft 1 kts 305°
2026-05-07 18:53 50.10739 14.26536 1181 ft 0 kts 305°
2026-05-07 18:56 50.10742 14.26529 1181 ft 3 kts 305°
2026-05-07 18:57 50.10767 14.26475 1178 ft 8 kts 304°
2026-05-07 18:57 50.10808 14.26382 1173 ft 12 kts 304°
2026-05-07 18:57 50.10805 14.26256 1169 ft 13 kts 222°
2026-05-07 18:57 50.10735 14.26179 1171 ft 11 kts 213°
2026-05-07 18:58 50.10679 14.26121 1172 ft 7 kts 214°
2026-05-07 18:58 50.10632 14.26071 1174 ft 9 kts 213°
2026-05-07 18:58 50.10571 14.26012 1177 ft 11 kts 212°
2026-05-07 18:58 50.10490 14.26002 1180 ft 13 kts 140°
2026-05-07 18:59 50.10428 14.26128 1182 ft 15 kts 127°
2026-05-07 18:59 50.10370 14.26247 1186 ft 11 kts 127°
2026-05-07 18:59 50.10326 14.26339 1190 ft 10 kts 126°
2026-05-07 18:59 50.10280 14.26434 1193 ft 11 kts 126°
2026-05-07 19:00 50.10228 14.26541 1197 ft 12 kts 127°
2026-05-07 19:00 50.10180 14.26639 1199 ft 11 kts 127°
2026-05-07 19:00 50.10112 14.26779 1200 ft 16 kts 127°
2026-05-07 19:00 50.10048 14.26914 1202 ft 14 kts 126°
2026-05-07 19:01 50.09986 14.27044 1202 ft 16 kts 127°
2026-05-07 19:01 50.09910 14.27200 1202 ft 20 kts 127°
2026-05-07 19:01 50.09815 14.27374 1203 ft 21 kts 135°
2026-05-07 19:01 50.09712 14.27532 1204 ft 20 kts 136°
2026-05-07 19:02 50.09616 14.27637 1206 ft 13 kts 187°
2026-05-07 19:02 50.09550 14.27579 1211 ft 8 kts 215°
2026-05-07 19:02 50.09518 14.27542 1214 ft 4 kts 218°
2026-05-07 19:02 50.09450 14.27462 1218 ft 19 kts 217°
2026-05-07 19:03 50.09444 14.27340 1218 ft 12 kts 307°
2026-05-07 19:03 50.09554 14.27113 1217 ft 59 kts 306°
2026-05-07 19:03 50.09972 14.26253 1202 ft 136 kts 308°
2026-05-07 19:03 50.10655 14.24867 1410 ft 178 kts 307°
2026-05-07 19:04 50.11396 14.23373 2434 ft 172 kts 307°
2026-05-07 19:04 50.12071 14.21942 3179 ft 172 kts 307°
2026-05-07 19:04 50.12790 14.20396 3651 ft 184 kts 307°
2026-05-07 19:04 50.13573 14.18755 4108 ft 196 kts 307°
2026-05-07 19:05 50.14419 14.17000 4611 ft 209 kts 307°
2026-05-07 19:05 50.15292 14.15191 5300 ft 211 kts 306°
2026-05-07 19:05 50.16177 14.13356 5978 ft 214 kts 306°
2026-05-07 19:05 50.17061 14.11521 6641 ft 217 kts 306°
2026-05-07 19:06 50.17970 14.09633 7336 ft 218 kts 305°
2026-05-07 19:06 50.19793 14.05844 8603 ft 225 kts 305°
2026-05-07 19:06 50.20769 14.03807 8966 ft 245 kts 305°
2026-05-07 19:07 50.21831 14.01620 9532 ft 260 kts 307°
2026-05-07 19:07 50.23231 13.99740 9994 ft 280 kts 332°
2026-05-07 19:07 50.25180 13.99103 10482 ft 300 kts
2026-05-07 19:07 50.27285 13.99742 10911 ft 318 kts 15°
2026-05-07 19:08 50.29407 14.00871 11625 ft 325 kts 18°
2026-05-07 19:08 50.31550 14.01995 12356 ft 330 kts 14°
2026-05-07 19:08 50.33777 14.02823 13127 ft 332 kts
2026-05-07 19:08 50.36028 14.03493 13850 ft 335 kts
2026-05-07 19:09 50.38327 14.04156 14566 ft 339 kts
2026-05-07 19:09 50.40630 14.04856 15341 ft 341 kts
2026-05-07 19:09 50.42972 14.05608 16071 ft 344 kts 10°
2026-05-07 19:09 50.45289 14.06380 16767 ft 346 kts 11°
2026-05-07 19:10 50.47648 14.07180 17461 ft 349 kts 11°
2026-05-07 19:10 50.50021 14.07990 18172 ft 351 kts 11°
2026-05-07 19:10 50.52416 14.08795 18873 ft 352 kts 10°
2026-05-07 19:10 50.54808 14.09594 19434 ft 355 kts 10°
2026-05-07 19:11 50.57220 14.10405 20009 ft 357 kts 10°
2026-05-07 19:11 50.59624 14.11219 20572 ft 359 kts 11°
2026-05-07 19:11 50.62054 14.12046 21130 ft 361 kts 11°
2026-05-07 19:11 50.64512 14.12885 21656 ft 363 kts 11°
2026-05-07 19:12 50.66992 14.13736 22181 ft 365 kts 10°
2026-05-07 19:12 50.69481 14.14593 22692 ft 367 kts 10°
2026-05-07 19:12 50.71961 14.15451 23187 ft 369 kts 10°
2026-05-07 19:12 50.74477 14.16324 23662 ft 372 kts 11°
2026-05-07 19:13 50.77005 14.17200 24135 ft 374 kts 10°
2026-05-07 19:13 50.79533 14.18076 24579 ft 376 kts 11°
2026-05-07 19:13 50.82071 14.18954 25026 ft 378 kts 11°
2026-05-07 19:13 50.84660 14.19848 25424 ft 381 kts 11°
2026-05-07 19:14 50.87266 14.20638 25796 ft 383 kts
2026-05-07 19:14 50.89900 14.21085 26163 ft 385 kts
2026-05-07 19:14 50.92573 14.21017 26480 ft 388 kts 355°
2026-05-07 19:14 50.95240 14.20610 26924 ft 388 kts 352°
2026-05-07 19:15 50.97928 14.20046 27251 ft 391 kts 351°
2026-05-07 19:15 51.00631 14.19418 27585 ft 394 kts 351°
2026-05-07 19:15 51.03320 14.18779 28013 ft 394 kts 351°
2026-05-07 19:15 51.06033 14.18142 28277 ft 398 kts 351°
2026-05-07 19:16 51.08778 14.17524 28653 ft 399 kts 351°
2026-05-07 19:16 51.11515 14.16952 28976 ft 401 kts 352°
2026-05-07 19:16 51.14290 14.16395 29325 ft 403 kts 352°
2026-05-07 19:16 51.17103 14.15841 29633 ft 405 kts 352°
2026-05-07 19:17 51.19926 14.15288 29984 ft 406 kts 352°
2026-05-07 19:17 51.22725 14.14738 30280 ft 409 kts 352°
2026-05-07 19:17 51.25565 14.14179 30533 ft 412 kts 352°
2026-05-07 19:17 51.28377 14.13623 30826 ft 413 kts 352°
2026-05-07 19:18 51.31245 14.13054 31093 ft 416 kts 352°
2026-05-07 19:18 51.34103 14.12485 31328 ft 418 kts 352°
2026-05-07 19:18 51.36997 14.11908 31558 ft 419 kts 352°
2026-05-07 19:18 51.39895 14.11303 31704 ft 423 kts 351°
2026-05-07 19:19 51.42838 14.10557 31914 ft 425 kts 349°
2026-05-07 19:19 51.45748 14.09730 32110 ft 427 kts 349°
2026-05-07 19:19 51.48695 14.08857 32278 ft 430 kts 349°
2026-05-07 19:19 51.51629 14.08038 32464 ft 432 kts 352°
2026-05-07 19:20 51.54666 14.07626 32661 ft 435 kts 358°
2026-05-07 19:20 51.57671 14.07623 32799 ft 438 kts
2026-05-07 19:20 51.60734 14.07804 32976 ft 440 kts
2026-05-07 19:20 51.63778 14.08028 33102 ft 443 kts
2026-05-07 19:21 51.66885 14.08249 33279 ft 446 kts
2026-05-07 19:21 51.70002 14.08445 33416 ft 448 kts
2026-05-07 19:21 51.73095 14.08610 33582 ft 450 kts
2026-05-07 19:21 51.76243 14.08751 33731 ft 453 kts
2026-05-07 19:22 51.79392 14.08869 33903 ft 454 kts
2026-05-07 19:22 51.82540 14.08971 34023 ft 457 kts
2026-05-07 19:22 51.85705 14.09062 34225 ft 457 kts
2026-05-07 19:22 51.88901 14.09146 34414 ft 458 kts
2026-05-07 19:23 51.92103 14.09227 34728 ft 456 kts 360°
2026-05-07 19:23 51.95261 14.09303 34941 ft 456 kts 360°
2026-05-07 19:23 51.98409 14.09377 35178 ft 456 kts 360°
2026-05-07 19:23 52.01626 14.09452 35356 ft 457 kts 360°
2026-05-07 19:24 52.04810 14.09526 35556 ft 457 kts 360°
2026-05-07 19:24 52.07968 14.09599 35751 ft 457 kts 360°
2026-05-07 19:24 52.11140 14.09673 35926 ft 457 kts 360°
2026-05-07 19:24 52.14300 14.09746 36041 ft 458 kts 360°
2026-05-07 19:25 52.20701 14.09896 36073 ft 458 kts 360°
2026-05-07 19:25 52.27032 14.10045 36078 ft 457 kts 360°
2026-05-07 19:26 52.33424 14.10194 36071 ft 456 kts 360°
2026-05-07 19:26 52.39775 14.10344 36074 ft 457 kts 360°
2026-05-07 19:27 52.46072 14.10493 36078 ft 456 kts 360°
2026-05-07 19:27 52.52451 14.10645 36075 ft 456 kts
2026-05-07 19:28 52.58746 14.10796 36082 ft 456 kts
2026-05-07 19:28 52.65093 14.10947 36075 ft 455 kts
2026-05-07 19:29 52.71434 14.11098 36084 ft 456 kts
2026-05-07 19:29 52.77755 14.11251 36079 ft 457 kts
2026-05-07 19:30 52.84067 14.11403 36087 ft 455 kts
2026-05-07 19:30 52.90409 14.11556 36081 ft 456 kts
2026-05-07 19:31 52.96744 14.11710 36089 ft 455 kts
2026-05-07 19:31 53.03066 14.11863 36087 ft 454 kts
2026-05-07 19:32 53.09376 14.12016 36090 ft 455 kts
2026-05-07 19:32 53.15684 14.12170 36097 ft 455 kts
2026-05-07 19:33 53.22010 14.12325 36093 ft 456 kts
2026-05-07 19:33 53.28324 14.12481 36102 ft 456 kts
2026-05-07 19:34 53.34638 14.12636 36104 ft 455 kts
2026-05-07 19:34 53.40954 14.12792 36104 ft 454 kts
2026-05-07 19:35 53.47260 14.12949 36105 ft 454 kts
2026-05-07 19:35 53.53561 14.13106 36110 ft 454 kts
2026-05-07 19:36 53.59892 14.13265 36114 ft 455 kts
2026-05-07 19:36 53.66197 14.13423 36120 ft 455 kts
2026-05-07 19:37 53.72527 14.13583 36125 ft 454 kts
2026-05-07 19:37 53.78785 14.13739 36126 ft 453 kts
2026-05-07 19:38 53.85135 14.13899 36135 ft 452 kts
2026-05-07 19:38 53.91393 14.14057 36127 ft 453 kts
2026-05-07 19:39 53.97720 14.14217 36132 ft 453 kts
2026-05-07 19:39 54.03973 14.14376 36136 ft 453 kts
2026-05-07 19:40 54.10286 14.14538 36134 ft 453 kts
2026-05-07 19:40 54.16529 14.14698 36131 ft 452 kts
2026-05-07 19:41 54.22831 14.14860 36138 ft 452 kts
2026-05-07 19:41 54.29092 14.15022 36134 ft 452 kts
2026-05-07 19:42 54.35345 14.15183 36141 ft 452 kts
2026-05-07 19:42 54.41617 14.15345 36134 ft 451 kts
2026-05-07 19:43 54.47890 14.15509 36138 ft 451 kts
2026-05-07 19:43 54.54113 14.15672 36129 ft 450 kts
2026-05-07 19:44 54.60366 14.15837 36132 ft 448 kts
2026-05-07 19:44 54.66613 14.16001 36136 ft 449 kts
2026-05-07 19:45 54.72863 14.16166 36133 ft 448 kts
2026-05-07 19:45 54.79069 14.16331 36136 ft 447 kts
2026-05-07 19:46 54.85297 14.16496 36136 ft 447 kts
2026-05-07 19:46 54.91478 14.16324 36134 ft 445 kts 355°
2026-05-07 19:47 54.97590 14.14754 36141 ft 445 kts 349°
2026-05-07 19:47 55.03636 14.12554 36139 ft 444 kts 348°
2026-05-07 19:48 55.09704 14.10621 36141 ft 444 kts 352°
2026-05-07 19:48 55.15805 14.09282 36138 ft 444 kts 354°
2026-05-07 19:49 55.21954 14.08066 36134 ft 444 kts 354°
2026-05-07 19:49 55.28040 14.06846 36134 ft 444 kts 354°
2026-05-07 19:50 55.34137 14.05591 35973 ft 439 kts 354°
2026-05-07 19:50 55.40177 14.04325 36114 ft 441 kts 353°
2026-05-07 19:51 55.46295 14.03030 36132 ft 445 kts 353°
2026-05-07 19:51 55.52430 14.01722 36126 ft 443 kts 353°
2026-05-07 19:52 55.58558 14.00410 36137 ft 443 kts 353°
2026-05-07 19:52 55.64649 13.99100 36110 ft 442 kts 353°
2026-05-07 19:53 55.70723 13.97788 36135 ft 442 kts 353°
2026-05-07 19:53 55.76772 13.96210 36107 ft 441 kts 348°
2026-05-07 19:54 55.82700 13.93194 36124 ft 443 kts 341°
2026-05-07 19:54 55.88459 13.89446 36130 ft 442 kts 340°
2026-05-07 19:55 55.94178 13.85565 36129 ft 441 kts 340°
2026-05-07 19:55 55.99880 13.81709 36126 ft 440 kts 340°
2026-05-07 19:56 56.05625 13.77852 36118 ft 440 kts 340°
2026-05-07 19:56 56.11329 13.74034 36113 ft 439 kts 340°
2026-05-07 19:57 56.16956 13.70264 35777 ft 429 kts 340°
2026-05-07 19:57 56.19779 13.68370 35202 ft 433 kts 341°
2026-05-07 19:57 56.22597 13.66478 34511 ft 436 kts 341°
2026-05-07 19:58 56.25394 13.64599 33914 ft 434 kts 341°
2026-05-07 19:58 56.28225 13.62693 33135 ft 437 kts 341°
2026-05-07 19:58 56.31052 13.60787 32734 ft 429 kts 340°
2026-05-07 19:58 56.33819 13.58917 32162 ft 427 kts 340°
2026-05-07 19:59 56.36599 13.57037 31702 ft 422 kts 340°
2026-05-07 19:59 56.39307 13.55202 31180 ft 419 kts 340°
2026-05-07 19:59 56.42051 13.53341 30612 ft 416 kts 340°
2026-05-07 19:59 56.44736 13.51515 30121 ft 412 kts 340°
2026-05-07 20:00 56.47368 13.49723 29459 ft 409 kts 340°
2026-05-07 20:00 56.49997 13.47930 28540 ft 403 kts 340°
2026-05-07 20:00 56.52613 13.46143 27643 ft 399 kts 340°
2026-05-07 20:00 56.55177 13.44389 27089 ft 394 kts 339°
2026-05-07 20:01 56.57722 13.42645 26577 ft 389 kts 339°
2026-05-07 20:01 56.60208 13.40940 26052 ft 385 kts 339°
2026-05-07 20:01 56.62695 13.39232 25524 ft 382 kts 339°
2026-05-07 20:01 56.65155 13.37540 24995 ft 378 kts 339°
2026-05-07 20:02 56.67592 13.35863 24459 ft 376 kts 339°
2026-05-07 20:02 56.70036 13.34178 23922 ft 373 kts 338°
2026-05-07 20:02 56.72400 13.32436 23386 ft 370 kts 334°
2026-05-07 20:02 56.74683 13.30385 22844 ft 368 kts 331°
2026-05-07 20:03 56.76918 13.28118 22312 ft 365 kts 329°
2026-05-07 20:03 56.79086 13.25803 21794 ft 363 kts 328°
2026-05-07 20:03 56.81233 13.23475 21283 ft 360 kts 328°
2026-05-07 20:03 56.83366 13.21158 20775 ft 357 kts 328°
2026-05-07 20:04 56.85490 13.18856 20265 ft 354 kts 328°
2026-05-07 20:04 56.87581 13.16599 19756 ft 352 kts 328°
2026-05-07 20:04 56.89670 13.14350 19247 ft 349 kts 328°
2026-05-07 20:04 56.91745 13.12117 18752 ft 346 kts 328°
2026-05-07 20:05 56.93817 13.09889 18261 ft 342 kts 328°
2026-05-07 20:05 56.95839 13.07713 17770 ft 339 kts 329°
2026-05-07 20:05 56.97847 13.05551 17284 ft 336 kts 329°
2026-05-07 20:05 56.99850 13.03394 16793 ft 333 kts 329°
2026-05-07 20:06 57.01836 13.01252 16310 ft 330 kts 329°
2026-05-07 20:06 57.03780 12.99153 15830 ft 327 kts 329°
2026-05-07 20:06 57.05722 12.97054 15354 ft 324 kts 329°
2026-05-07 20:06 57.07633 12.94912 14869 ft 320 kts 325°
2026-05-07 20:07 57.09293 12.92298 14407 ft 316 kts 310°
2026-05-07 20:07 57.10436 12.88901 13942 ft 313 kts 294°
2026-05-07 20:07 57.11221 12.85191 13489 ft 310 kts 290°
2026-05-07 20:07 57.11940 12.81494 13031 ft 308 kts 290°
2026-05-07 20:08 57.12653 12.77823 12563 ft 306 kts 290°
2026-05-07 20:08 57.13374 12.74159 12113 ft 303 kts 290°
2026-05-07 20:08 57.14093 12.70546 11670 ft 301 kts 290°
2026-05-07 20:08 57.14816 12.66935 11220 ft 299 kts 291°
2026-05-07 20:09 57.15530 12.63378 10771 ft 297 kts 291°
2026-05-07 20:09 57.16233 12.59866 10495 ft 290 kts 291°
2026-05-07 20:09 57.16913 12.56463 10345 ft 278 kts 291°
2026-05-07 20:10 57.18440 12.50279 10103 ft 258 kts 309°
2026-05-07 20:10 57.19720 12.48016 9731 ft 258 kts 322°
2026-05-07 20:10 57.21142 12.46048 9366 ft 257 kts 323°
2026-05-07 20:10 57.22568 12.44076 9035 ft 255 kts 322°
2026-05-07 20:11 57.23953 12.42074 8716 ft 254 kts 322°
2026-05-07 20:11 57.25354 12.39987 8411 ft 268 kts 321°
2026-05-07 20:11 57.26810 12.37791 8059 ft 272 kts 321°
2026-05-07 20:11 57.28262 12.35596 7709 ft 270 kts 321°
2026-05-07 20:12 57.29717 12.33395 7380 ft 268 kts 321°
2026-05-07 20:12 57.31150 12.31227 7045 ft 267 kts 320°
2026-05-07 20:12 57.32574 12.29073 6703 ft 265 kts 321°
2026-05-07 20:12 57.33987 12.26934 6381 ft 264 kts 321°
2026-05-07 20:13 57.35403 12.24789 6051 ft 263 kts 321°
2026-05-07 20:13 57.36832 12.22620 5607 ft 266 kts 321°
2026-05-07 20:13 57.38258 12.20454 5289 ft 263 kts 321°
2026-05-07 20:13 57.39638 12.18357 5093 ft 256 kts 321°
2026-05-07 20:14 57.40994 12.16293 4883 ft 251 kts 321°
2026-05-07 20:14 57.42348 12.14278 4665 ft 245 kts 324°
2026-05-07 20:14 57.43817 12.12805 4387 ft 240 kts 346°
2026-05-07 20:14 57.45421 12.12426 4153 ft 227 kts 360°
2026-05-07 20:15 57.46955 12.12388 3928 ft 213 kts 360°
2026-05-07 20:15 57.48387 12.12404 3699 ft 200 kts
2026-05-07 20:15 57.49672 12.13043 3525 ft 185 kts 24°
2026-05-07 20:15 57.50797 12.14014 3342 ft 175 kts 26°
2026-05-07 20:16 57.51879 12.14975 3185 ft 170 kts 26°
2026-05-07 20:16 57.52932 12.15916 3050 ft 164 kts 26°
2026-05-07 20:16 57.53927 12.16812 2950 ft 155 kts 25°
2026-05-07 20:16 57.54886 12.17675 2755 ft 153 kts 25°
2026-05-07 20:17 57.55828 12.18525 2562 ft 149 kts 25°
2026-05-07 20:17 57.56764 12.19369 2347 ft 151 kts 25°
2026-05-07 20:17 57.57674 12.20192 2108 ft 141 kts 24°
2026-05-07 20:17 57.58529 12.20963 1933 ft 136 kts 24°
2026-05-07 20:18 57.59382 12.21733 1750 ft 137 kts 24°
2026-05-07 20:18 57.60224 12.22496 1569 ft 136 kts 24°
2026-05-07 20:18 57.61079 12.23268 1366 ft 136 kts 24°
2026-05-07 20:18 57.61934 12.24045 1222 ft 136 kts 24°
2026-05-07 20:19 57.62760 12.24799 979 ft 135 kts 23°
2026-05-07 20:19 57.63611 12.25544 814 ft 135 kts 23°
2026-05-07 20:19 57.64457 12.26316 635 ft 137 kts 24°
2026-05-07 20:19 57.65330 12.27105 498 ft 135 kts 24°
2026-05-07 20:20 57.66096 12.27808 508 ft 104 kts 25°
2026-05-07 20:20 57.66633 12.28294 511 ft 69 kts 25°
2026-05-07 20:20 57.67007 12.28635 508 ft 55 kts 25°
2026-05-07 20:20 57.67309 12.28909 510 ft 29 kts 26°
2026-05-07 20:21 57.67447 12.29112 510 ft 19 kts 65°
2026-05-07 20:21 57.67448 12.29330 510 ft 16 kts 112°
2026-05-07 20:21 57.67401 12.29467 512 ft 10 kts 157°
2026-05-07 20:21 57.67378 12.29474 512 ft 0 kts 178°
2026-05-07 20:22 57.67372 12.29473 512 ft 2 kts 189°
2026-05-07 20:22 57.67314 12.29433 512 ft 13 kts 205°
2026-05-07 20:22 57.67206 12.29335 510 ft 20 kts 206°
2026-05-07 20:23 57.67076 12.29211 510 ft 19 kts 204°
2026-05-07 20:23 57.66952 12.29100 509 ft 18 kts 206°
2026-05-07 20:23 57.66842 12.29003 507 ft 16 kts 195°
2026-05-07 20:23 57.66775 12.29094 508 ft 8 kts 119°
2026-05-07 20:24 57.66752 12.29180 510 ft 6 kts 113°
2026-05-07 20:24 57.66739 12.29233 511 ft 3 kts 115°
2026-05-07 20:24 57.66733 12.29258 512 ft 1 kts 116°
2026-05-07 20:24 57.66730 12.29268 512 ft 0 kts 115°
2026-05-07 20:25 57.66729 12.29272 512 ft 0 kts 115°